1512799200.66,63678,5.13,71880.3,-11.61,-13.43,-13.33,0,*6C
1512799201.9,63679,5.13,71886.5,-11.57,-13.23,-13.29,0,*65
1512799203.14,63680,5.13,71886.0,-11.57,-13.23,-13.29,0,*63
1512799204.41,63681,5.13,71884.8,-11.59,-13.23,-13.29,0,*6C
1512799205.65,63682,5.13,71886.0,-11.57,-13.23,-13.29,0,*61
1512799206.88,63683,5.13,71882.0,-11.57,-13.23,-13.29,0,*60
1512799208.15,63684,5.13,71880.8,-11.57,-13.29,-13.29,0,*6D
1512799209.44,63685,5.13,71884.3,-11.59,-13.29,-13.29,0,*62
1512799210.73,63686,5.13,71884.0,-11.59,-13.29,-13.29,0,*61
1512799212.01,63687,5.13,71882.3,-11.59,-13.29,-13.29,0,*60
1512799213.3,63688,5.13,71884.5,-11.59,-13.29,-13.29,0,*6F
1512799214.59,63689,5.13,71886.5,-11.59,-13.37,-13.29,0,*61
1512799215.86,63690,5.13,71880.3,-11.57,-13.29,-13.29,0,*68
1512799217.12,63691,5.13,71884.3,-11.57,-13.29,-13.29,0,*69
1512799218.41,63692,5.13,71882.0,-11.59,-13.29,-13.29,0,*64
1512799219.7,63693,5.13,71878.5,-11.59,-13.29,-13.29,0,*65
1512799220.98,63694,5.13,71884.5,-11.59,-13.29,-13.29,0,*62
1512799222.25,63695,5.13,71882.5,-11.57,-13.29,-13.29,0,*6D
1512799223.54,63696,5.13,71882.8,-11.59,-13.29,-13.29,0,*60
1512799224.83,63697,5.13,71882.8,-11.59,-13.29,-13.29,0,*61
1512799226.11,63698,5.13,71876.8,-11.59,-13.29,-13.29,0,*6E
1512799227.41,63699,5.13,71882.0,-11.59,-13.29,-13.29,0,*6F
1512799228.67,63700,5.13,71880.3,-11.57,-13.29,-13.29,0,*60
1512799229.93,63701,5.13,71880.8,-11.57,-13.29,-13.37,0,*6E
1512799231.19,63702,5.13,71878.3,-11.57,-13.37,-13.37,0,*62
1512799232.45,63703,5.13,71878.8,-11.57,-13.37,-13.37,0,*63
1512799233.71,63704,5.13,71878.8,-11.57,-13.37,-13.37,0,*64
1512799234.98,63705,5.13,71880.0,-11.57,-13.29,-13.29,0,*65
1512799236.24,63706,5.13,71880.3,-11.57,-13.29,-13.37,0,*69
1512799237.47,63707,5.13,71882.3,-11.57,-13.37,-13.43,0,*64
1512799238.68,63708,5.06,71880.5,-11.57,-13.43,-13.43,0,*68
1512799239.88,63709,5.06,71880.3,-11.61,-13.47,-13.47,0,*6C
1512799241.15,63710,5.13,71886.0,-11.59,-13.29,-13.43,0,*63
1512799242.41,63711,5.13,71880.8,-11.57,-13.29,-13.37,0,*6F
1512799243.7,63712,5.13,71880.5,-11.59,-13.37,-13.37,0,*6D
1512799244.96,63713,5.13,71884.0,-11.59,-13.37,-13.43,0,*6F
1512799246.25,63714,5.13,71880.3,-11.59,-13.37,-13.37,0,*6B
1512799247.51,63715,5.13,71880.3,-11.57,-13.37,-13.37,0,*64
1512799248.8,63716,5.13,71882.3,-11.59,-13.37,-13.37,0,*69
1512799250.09,63717,5.13,71882.0,-11.59,-13.37,-13.37,0,*68
1512799251.35,63718,5.06,71882.0,-11.57,-13.37,-13.29,0,*66
1512799252.61,63719,5.13,71886.5,-11.57,-13.37,-13.37,0,*68
1512799253.82,63720,5.13,71886.8,-11.61,-13.47,-13.43,0,*63
1512799255.08,63721,5.13,71886.8,-11.59,-13.29,-13.47,0,*65
1512799256.33,63722,5.13,71882.0,-11.59,-13.37,-13.47,0,*69
1512799257.54,63723,5.13,71882.8,-11.57,-13.43,-13.47,0,*65
1512799258.77,63724,5.13,71884.0,-11.57,-13.29,-13.43,0,*6A
1512799260.04,63725,5.13,71886.8,-11.59,-13.37,-13.43,0,*6A
1512799261.26,63726,5.13,71884.8,-11.59,-13.47,-13.47,0,*6A
1512799262.49,63727,5.13,71886.5,-11.59,-13.47,-13.47,0,*6B
1512799263.7,63728,5.13,71882.5,-11.61,-13.43,-13.47,0,*6B
1512799264.96,63729,5.13,71884.0,-11.59,-13.37,-13.43,0,*66
1512799266.17,63730,5.13,71886.3,-11.61,-13.43,-13.47,0,*62
1512799267.45,63731,5.13,71886.0,-11.59,-13.37,-13.37,0,*6C
1512799268.69,63732,5.13,71886.0,-11.59,-13.43,-13.43,0,*6F
1512799269.95,63733,5.13,71884.0,-11.59,-13.37,-13.43,0,*6D
1512799271.18,63734,5.13,71888.8,-11.59,-13.43,-13.47,0,*6D
1512799272.4,63735,5.13,71886.3,-11.61,-13.51,-13.51,0,*63
1512799273.62,63736,5.13,71884.5,-11.61,-13.51,-13.47,0,*67
1512799274.85,63737,5.13,71884.3,-11.59,-13.47,-13.47,0,*6A
1512799276.08,63738,5.06,71882.3,-11.59,-13.43,-13.47,0,*61
1512799277.31,63739,5.13,71884.3,-11.59,-13.43,-13.47,0,*60
1512799278.52,63740,5.13,71886.5,-11.61,-13.43,-13.43,0,*61
1512799279.75,63741,5.13,71886.3,-11.61,-13.37,-13.43,0,*63
1512799280.99,63742,5.13,71886.5,-11.61,-13.37,-13.47,0,*64
1512799282.22,63743,5.13,71884.3,-11.61,-13.33,-13.47,0,*61
1512799283.45,63744,5.06,71880.5,-11.61,-13.33,-13.47,0,*66
1512799284.68,63745,5.13,71884.0,-11.61,-13.33,-13.43,0,*63
1512799285.97,63746,5.13,71884.0,-11.59,-13.37,-13.37,0,*6C
1512799287.26,63747,5.13,71886.8,-11.59,-13.29,-13.37,0,*62
1512799288.55,63748,5.13,71882.3,-11.59,-13.29,-13.29,0,*62
1512799289.81,63749,5.06,71882.3,-11.61,-13.33,-13.33,0,*68
1512799291.1,63750,5.06,71882.8,-11.59,-13.37,-13.29,0,*64
1512799292.33,63751,5.13,71886.0,-11.61,-13.33,-13.43,0,*66
1512799293.62,63752,5.13,71882.3,-11.59,-13.29,-13.37,0,*66
1512799294.85,63753,5.13,71884.8,-11.61,-13.33,-13.43,0,*64
1512799296.11,63754,5.06,71882.8,-11.61,-13.33,-13.33,0,*64
1512799297.4,63755,5.13,71886.0,-11.59,-13.37,-13.37,0,*6E
1512799298.64,63756,5.13,71886.0,-11.61,-13.33,-13.43,0,*61
1512799299.85,63757,5.13,71884.3,-11.61,-13.43,-13.43,0,*67
1512799301.07,63758,5.06,71884.5,-11.61,-13.51,-13.51,0,*68
1512799302.28,63759,5.13,71884.0,-11.61,-13.47,-13.51,0,*6E
1512799303.52,63760,5.06,71884.3,-11.61,-13.43,-13.33,0,*64
1512799304.78,63761,5.13,71886.0,-11.61,-13.33,-13.33,0,*62
1512799306.01,63762,5.06,71886.5,-11.61,-13.33,-13.43,0,*66
1512799307.24,63763,5.06,71884.8,-11.61,-13.33,-13.43,0,*67
1512799308.45,63764,5.06,71884.8,-11.61,-13.43,-13.43,0,*67
1512799309.69,63765,5.13,71886.3,-11.61,-13.33,-13.43,0,*61
1512799310.9,63766,5.13,71886.8,-11.61,-13.43,-13.43,0,*65
1512799312.13,63767,5.06,71884.8,-11.61,-13.33,-13.43,0,*63
1512799313.42,63768,5.13,71886.8,-11.59,-13.29,-13.37,0,*6F
1512799314.65,63769,5.06,71886.8,-11.61,-13.33,-13.43,0,*6D
1512799315.88,63770,5.13,71888.8,-11.61,-13.33,-13.43,0,*65
1512799317.11,63771,5.13,71888.0,-11.61,-13.33,-13.47,0,*60
1512799318.4,63772,5.13,71890.3,-11.59,-13.29,-13.37,0,*64
1512799319.67,63773,5.13,71888.5,-11.61,-13.33,-13.33,0,*61
1512799320.9,63774,5.13,71890.3,-11.65,-13.47,-13.37,0,*65
1512799322.14,63775,5.06,71884.3,-11.65,-13.37,-13.51,0,*63
1512799323.37,63776,5.06,71884.5,-11.65,-13.51,-13.55,0,*64
1512799324.59,63777,5.06,71884.5,-11.65,-13.51,-13.55,0,*65
1512799325.83,63778,5.13,71886.5,-11.59,-13.43,-13.51,0,*62
1512799327.03,63779,5.06,71888.0,-11.61,-13.47,-13.43,0,*6F
1512799328.26,63780,5.06,71886.5,-11.65,-13.51,-13.51,0,*69
1512799329.46,63781,5.06,71884.8,-11.61,-13.43,-13.47,0,*68
1512799330.66,63782,5.13,71886.8,-11.61,-13.47,-13.47,0,*6F
1512799331.87,63783,5.06,71886.3,-11.61,-13.47,-13.43,0,*6A
1512799333.08,63784,5.13,71884.8,-11.61,-13.51,-13.47,0,*6E
1512799334.29,63785,5.06,71886.5,-11.61,-13.43,-13.43,0,*68
1512799335.5,63786,5.13,71888.5,-11.65,-13.47,-13.47,0,*6F
1512799336.72,63787,5.06,71884.0,-11.65,-13.51,-13.55,0,*6A
1512799337.94,63788,5.13,71884.8,-11.65,-13.55,-13.55,0,*61
1512799339.16,63789,5.06,71882.8,-11.65,-13.51,-13.51,0,*60
1512799340.36,63790,5.13,71886.3,-11.65,-13.47,-13.47,0,*68
1512799341.57,63791,5.06,71882.0,-11.65,-13.47,-13.47,0,*69
1512799342.82,63792,5.13,71884.3,-11.65,-13.51,-13.37,0,*6A
1512799344.05,63793,5.06,71886.0,-11.65,-13.47,-13.37,0,*6C
1512799345.27,63794,5.13,71884.5,-11.65,-13.51,-13.51,0,*6C
1512799346.49,63795,5.06,71882.8,-11.65,-13.55,-13.55,0,*6D
1512799347.71,63796,5.13,71884.8,-11.65,-13.55,-13.55,0,*6E
1512799348.92,63797,5.06,71882.5,-11.65,-13.55,-13.51,0,*6B
1512799350.14,63798,5.13,71888.5,-11.65,-13.51,-13.47,0,*67
1512799351.36,63799,5.06,71884.3,-11.65,-13.51,-13.51,0,*61
1512799352.58,63800,5.06,71890.0,-11.65,-13.51,-13.51,0,*6E
1512799353.8,63801,5.06,71884.0,-11.65,-13.55,-13.51,0,*6B
1512799355.02,63802,5.06,71886.0,-11.65,-13.55,-13.51,0,*68
1512799356.26,63803,5.06,71890.5,-11.67,-13.51,-13.47,0,*68
1512799357.55,63804,5.06,71886.5,-11.67,-13.37,-13.37,0,*68
1512799358.84,63805,5.06,71886.5,-11.67,-13.37,-13.37,0,*69
1512799360.12,63806,5.13,71892.3,-11.67,-13.37,-13.37,0,*6A
1512799361.39,63807,5.06,71888.8,-11.65,-13.37,-13.37,0,*69
1512799362.63,63808,5.06,71890.5,-11.65,-13.47,-13.37,0,*61
1512799363.89,63809,5.06,71888.3,-11.67,-13.47,-13.37,0,*62
1512799365.18,63810,5.06,71886.5,-11.67,-13.37,-13.37,0,*6D
1512799366.41,63811,5.06,71886.0,-11.65,-13.37,-13.47,0,*69
1512799367.67,63812,5.06,71888.0,-11.67,-13.37,-13.47,0,*68
1512799368.96,63813,5.06,71890.8,-11.67,-13.37,-13.37,0,*6E
1512799370.22,63814,5.06,71892.0,-11.65,-13.37,-13.37,0,*6B
1512799371.51,63815,5.06,71888.5,-11.67,-13.37,-13.37,0,*68
1512799372.8,63816,5.06,71890.8,-11.67,-13.37,-13.37,0,*6B
1512799374.07,63817,5.06,71888.5,-11.65,-13.37,-13.37,0,*68
1512799375.33,63818,5.06,71888.5,-11.65,-13.37,-13.37,0,*67
1512799376.59,63819,5.06,71890.3,-11.67,-13.47,-13.37,0,*63
1512799377.85,63820,5.13,71892.0,-11.67,-13.37,-13.47,0,*69
1512799379.11,63821,5.06,71890.0,-11.67,-13.47,-13.37,0,*68
1512799380.4,63822,5.06,71888.5,-11.67,-13.37,-13.37,0,*6C
1512799381.69,63823,5.06,71888.5,-11.67,-13.37,-13.37,0,*6D
1512799382.92,63824,5.06,71890.0,-11.67,-13.47,-13.47,0,*6A
1512799384.21,63825,5.06,71890.0,-11.67,-13.37,-13.37,0,*6B
1512799385.5,63826,5.06,71892.0,-11.67,-13.37,-13.37,0,*68
1512799386.79,63827,5.06,71890.0,-11.67,-13.37,-13.37,0,*69
1512799388.08,63828,5.06,71888.0,-11.67,-13.37,-13.37,0,*66
1512799389.34,63829,5.06,71890.8,-11.67,-13.37,-13.47,0,*60
1512799390.63,63830,5.06,71890.0,-11.67,-13.37,-13.37,0,*6F
1512799391.89,63831,5.06,71890.3,-11.67,-13.37,-13.47,0,*69
1512799393.12,63832,5.06,71890.0,-11.65,-13.37,-13.47,0,*68
1512799394.38,63833,5.06,71890.8,-11.67,-13.47,-13.37,0,*6B
1512799395.62,63834,5.06,71884.5,-11.67,-13.47,-13.51,0,*6C
1512799396.91,63835,5.06,71890.3,-11.67,-13.37,-13.37,0,*6A
1512799398.17,63836,5.06,71886.5,-11.67,-13.47,-13.37,0,*6E
1512799399.43,63837,5.06,71888.5,-11.67,-13.47,-13.37,0,*6F
1512799400.66,63838,5.06,71888.0,-11.67,-13.47,-13.47,0,*67
1512799401.95,63839,5.06,71888.5,-11.67,-13.37,-13.37,0,*66
1512799403.21,63840,5.06,71888.8,-11.67,-13.47,-13.37,0,*6F
1512799404.5,63841,5.06,71890.0,-11.67,-13.37,-13.37,0,*69
1512799405.79,63842,5.06,71890.0,-11.67,-13.37,-13.37,0,*6A
1512799407.04,63843,5.06,71888.8,-11.67,-13.47,-13.37,0,*6C
1512799408.27,63844,5.06,71890.8,-11.67,-13.47,-13.47,0,*6C
1512799409.54,63845,5.06,71890.5,-11.65,-13.37,-13.37,0,*6F
1512799410.8,63846,5.06,71888.5,-11.67,-13.37,-13.47,0,*69
1512799412.02,63847,5.06,71886.5,-11.69,-13.43,-13.51,0,*62
1512799413.24,63848,5.06,71886.0,-11.69,-13.51,-13.51,0,*6E
1512799414.46,63849,5.06,71886.0,-11.69,-13.43,-13.51,0,*6C
1512799415.68,63850,5.06,71892.3,-11.69,-13.51,-13.43,0,*64
1512799416.89,63851,5.06,71888.5,-11.69,-13.51,-13.43,0,*65
1512799418.12,63852,5.06,71888.3,-11.69,-13.51,-13.51,0,*65
1512799419.34,63853,5.06,71888.0,-11.69,-13.51,-13.51,0,*64
1512799420.6,63854,5.06,71890.0,-11.71,-13.51,-13.51,0,*6A
1512799421.81,63855,5.06,71888.0,-11.69,-13.43,-13.43,0,*62
1512799423.02,63856,5.06,71888.0,-11.69,-13.43,-13.43,0,*61
1512799424.24,63857,5.06,71890.8,-11.69,-13.51,-13.43,0,*63
1512799425.46,63858,5.06,71890.3,-11.69,-13.43,-13.51,0,*6C
1512799426.72,63859,5.06,71888.0,-11.67,-13.47,-13.37,0,*67
1512799428.01,63860,5.06,71894.8,-11.67,-13.37,-13.37,0,*6A
1512799429.22,63861,5.06,71888.0,-11.69,-13.43,-13.43,0,*65
1512799430.43,63862,5.06,71888.3,-11.69,-13.43,-13.51,0,*65
1512799431.65,63863,5.06,71888.8,-11.69,-13.51,-13.43,0,*64
1512799432.87,63864,5.06,71888.5,-11.69,-13.43,-13.51,0,*63
1512799434.09,63865,5.06,71884.3,-11.69,-13.51,-13.43,0,*62
1512799435.3,63866,5.06,71888.8,-11.69,-13.43,-13.43,0,*62
1512799436.52,63867,5.06,71888.5,-11.69,-13.43,-13.43,0,*63
1512799437.73,63868,5.06,71890.3,-11.69,-13.43,-13.43,0,*6C
1512799438.94,63869,5.06,71890.8,-11.69,-13.43,-13.43,0,*6D
1512799440.18,63870,5.06,71890.8,-11.71,-13.43,-13.43,0,*6C
1512799441.41,63871,5.06,71890.0,-11.69,-13.51,-13.51,0,*64
1512799442.62,63872,5.06,71890.5,-11.69,-13.43,-13.51,0,*64
1512799443.87,63873,5.06,71890.8,-11.71,-13.43,-13.43,0,*6F
1512799445.08,63874,5.06,71888.0,-11.69,-13.43,-13.43,0,*61
1512799446.29,63875,5.06,71886.8,-11.69,-13.43,-13.43,0,*60
1512799447.51,63876,5.06,71890.3,-11.69,-13.43,-13.51,0,*60
1512799448.72,63877,5.06,71886.8,-11.69,-13.43,-13.43,0,*62
1512799449.98,63878,5.06,71892.8,-11.67,-13.47,-13.37,0,*64
1512799451.2,63879,5.06,71890.5,-11.69,-13.51,-13.51,0,*6C
1512799452.42,63880,5.06,71890.8,-11.69,-13.43,-13.43,0,*6A
1512799453.66,63881,5.06,71890.8,-11.71,-13.43,-13.43,0,*62
1512799454.9,63882,5.06,71890.8,-11.69,-13.37,-13.43,0,*6B
1512799456.14,63883,5.06,71888.5,-11.69,-13.37,-13.43,0,*6A
1512799457.37,63884,5.06,71890.0,-11.69,-13.37,-13.43,0,*6D
1512799458.67,63885,5.06,71886.5,-11.71,-13.37,-13.37,0,*66
1512799459.93,63886,5.06,71888.3,-11.69,-13.37,-13.37,0,*6C
1512799461.23,63887,5.06,71890.8,-11.71,-13.37,-13.37,0,*64
1512799462.47,63888,5.06,71888.5,-11.69,-13.43,-13.37,0,*61
1512799463.71,63889,5.06,71888.0,-11.69,-13.43,-13.37,0,*60
1512799464.95,63890,5.06,71894.8,-11.71,-13.43,-13.43,0,*62
1512799466.16,63891,5.06,71890.5,-11.69,-13.43,-13.43,0,*6A
1512799467.4,63892,5.06,71890.5,-11.69,-13.37,-13.43,0,*6A
1512799468.67,63893,5.06,71888.3,-11.69,-13.37,-13.37,0,*68
1512799469.96,63894,5.06,71890.0,-11.71,-13.37,-13.37,0,*66
1512799471.23,63895,5.06,71894.0,-11.69,-13.37,-13.37,0,*6E
1512799472.5,63896,5.06,71894.5,-11.69,-13.37,-13.37,0,*6D
1512799473.76,63897,5.06,71890.3,-11.71,-13.37,-13.43,0,*66
1512799474.99,63898,5.06,71888.8,-11.69,-13.51,-13.51,0,*63
1512799476.2,63899,5.06,71890.8,-11.69,-13.43,-13.43,0,*62
1512799477.47,63900,5.06,71890.0,-11.71,-13.37,-13.43,0,*69
1512799478.74,63901,5.06,71890.8,-11.71,-13.37,-13.43,0,*68
1512799479.95,63902,5.06,71890.0,-11.69,-13.43,-13.43,0,*61
1512799481.16,63903,5.06,71886.3,-11.69,-13.43,-13.43,0,*60
1512799482.4,63904,5.06,71886.8,-11.71,-13.43,-13.43,0,*6E
1512799483.62,63905,5.06,71886.0,-11.69,-13.43,-13.43,0,*66
1512799484.86,63906,5.06,71888.3,-11.69,-13.37,-13.43,0,*66
1512799486.12,63907,5.06,71890.3,-11.69,-13.37,-13.37,0,*64
1512799487.42,63908,5.06,71886.0,-11.71,-13.37,-13.37,0,*62
1512799488.68,63909,5.06,71884.8,-11.69,-13.37,-13.37,0,*6A
1512799489.98,63910,5.06,71884.8,-11.71,-13.37,-13.37,0,*6B
1512799491.22,63911,5.06,71886.0,-11.69,-13.43,-13.37,0,*60
1512799492.46,63912,5.06,71884.3,-11.69,-13.43,-13.37,0,*63
1512799493.7,63913,5.06,71888.0,-11.71,-13.43,-13.43,0,*68
1512799494.94,63914,5.06,71888.5,-11.71,-13.43,-13.43,0,*6F
1512799496.16,63915,5.06,71888.5,-11.69,-13.43,-13.51,0,*64
1512799497.4,63916,5.06,71888.5,-11.71,-13.43,-13.43,0,*6D
1512799498.61,63917,5.06,71888.3,-11.69,-13.43,-13.43,0,*65
1512799499.86,63918,5.06,71890.5,-11.71,-13.43,-13.43,0,*63
1512799501.1,63919,5.06,71888.3,-11.71,-13.43,-13.43,0,*62
1512799502.31,63920,5.06,71888.0,-11.69,-13.43,-13.43,0,*61
1512799503.52,63921,5.06,71884.5,-11.69,-13.43,-13.43,0,*60
1512799504.76,63922,5.06,71890.5,-11.71,-13.43,-13.43,0,*6A
1512799506.01,63923,5.06,71890.5,-11.71,-13.43,-13.43,0,*6B
1512799507.25,63924,5.06,71888.0,-11.71,-13.43,-13.43,0,*6C
1512799508.49,63925,5.06,71888.5,-11.69,-13.43,-13.37,0,*67
1512799509.73,63926,5.06,71886.3,-11.71,-13.43,-13.43,0,*6E
1512799510.97,63927,5.06,71886.5,-11.71,-13.43,-13.43,0,*6F
1512799512.21,63928,5.06,71886.8,-11.69,-13.43,-13.37,0,*6A
1512799513.45,63929,5.06,71884.8,-11.69,-13.43,-13.37,0,*6B
1512799514.69,63930,5.06,71892.0,-11.69,-13.43,-13.37,0,*63
1512799515.96,63931,5.06,71890.5,-11.71,-13.43,-13.37,0,*6B
1512799517.26,63932,5.06,71892.0,-11.71,-13.37,-13.29,0,*64
1512799518.52,63933,5.06,71888.8,-11.69,-13.37,-13.37,0,*63
1512799519.79,63934,5.06,71894.0,-11.71,-13.43,-13.37,0,*6E
1512799521.06,63935,5.06,71892.0,-11.71,-13.43,-13.37,0,*6F
1512799522.3,63936,5.06,71892.0,-11.69,-13.43,-13.37,0,*65
1512799523.6,63937,5.06,71888.3,-11.71,-13.37,-13.29,0,*61
1512799524.89,63938,5.06,71888.8,-11.71,-13.37,-13.37,0,*61
1512799526.19,63939,5.06,71892.8,-11.71,-13.37,-13.37,0,*60
1512799527.45,63940,5.06,71888.8,-11.69,-13.37,-13.37,0,*67
1512799528.72,63941,5.06,71890.0,-11.71,-13.43,-13.37,0,*6C
1512799529.96,63942,5.06,71890.0,-11.69,-13.43,-13.37,0,*66
1512799531.23,63943,5.06,71890.8,-11.71,-13.43,-13.37,0,*6E
1512799532.47,63944,5.06,71890.8,-11.71,-13.43,-13.43,0,*6A
1512799533.72,63945,5.06,71892.8,-11.71,-13.43,-13.43,0,*6B
1512799534.93,63946,5.06,71888.3,-11.69,-13.43,-13.43,0,*61
1512799536.17,63947,5.06,71884.8,-11.69,-13.43,-13.37,0,*63
1512799537.42,63948,5.06,71888.8,-11.71,-13.51,-13.43,0,*65
1512799538.66,63949,5.06,71888.3,-11.71,-13.43,-13.43,0,*67
1512799539.87,63950,5.06,71888.0,-11.69,-13.43,-13.43,0,*66
1512799541.14,63951,5.06,71886.8,-11.69,-13.37,-13.37,0,*67
1512799542.4,63952,5.06,71890.0,-11.69,-13.37,-13.37,0,*64
1512799543.67,63953,5.06,71888.5,-11.71,-13.43,-13.37,0,*6F
1512799544.91,63954,5.06,71888.0,-11.69,-13.43,-13.37,0,*61
1512799546.18,63955,5.06,71890.8,-11.71,-13.43,-13.37,0,*69
1512799547.45,63956,5.06,71890.5,-11.71,-13.43,-13.37,0,*6A
1512799548.72,63957,5.06,71890.5,-11.71,-13.43,-13.29,0,*64
1512799549.99,63958,5.06,71890.8,-11.71,-13.43,-13.37,0,*64
1512799551.26,63959,5.06,71892.0,-11.71,-13.43,-13.37,0,*65
1512799552.56,63960,5.06,71888.5,-11.71,-13.37,-13.29,0,*63
1512799553.82,63961,5.06,71890.5,-11.69,-13.37,-13.37,0,*64
1512799555.12,63962,5.06,71888.0,-11.71,-13.37,-13.37,0,*6E
1512799556.38,63963,5.06,71888.5,-11.69,-13.37,-13.37,0,*66
1512799557.65,63964,5.06,71888.0,-11.69,-13.37,-13.37,0,*61
1512799558.94,63965,5.06,71886.5,-11.71,-13.37,-13.29,0,*66
1512799560.21,63966,5.06,71888.3,-11.69,-13.37,-13.37,0,*63
1512799561.51,63967,5.06,71888.3,-11.71,-13.37,-13.37,0,*6B
1512799562.8,63968,5.06,71886.8,-11.71,-13.37,-13.37,0,*64
1512799564.1,63969,5.06,71888.3,-11.71,-13.37,-13.37,0,*65
1512799565.39,63970,5.06,71886.0,-11.71,-13.37,-13.37,0,*6D
1512799566.66,63971,5.06,71884.3,-11.71,-13.43,-13.37,0,*6F
1512799567.91,63972,5.06,71888.3,-11.71,-13.51,-13.43,0,*6C
1512799569.18,63973,5.06,71882.5,-11.71,-13.43,-13.37,0,*6D
1512799570.42,63974,5.06,71882.3,-11.69,-13.43,-13.29,0,*6C
1512799571.67,63975,5.06,71882.3,-11.71,-13.51,-13.43,0,*6B
1512799572.91,63976,5.06,71884.8,-11.71,-13.43,-13.43,0,*6B
1512799574.15,63977,5.06,71880.0,-11.71,-13.43,-13.43,0,*6A
1512799575.4,63978,5.06,71880.3,-11.71,-13.43,-13.43,0,*65
1512799576.64,63979,5.06,71880.3,-11.71,-13.43,-13.43,0,*64
1512799577.86,63980,5.06,71884.3,-11.69,-13.51,-13.43,0,*68
1512799579.1,63981,5.06,71882.8,-11.71,-13.43,-13.43,0,*63
1512799580.32,63982,5.06,71884.3,-11.69,-13.51,-13.43,0,*6A
1512799581.53,63983,5.0,71878.5,-11.69,-13.43,-13.43,0,*68
1512799582.74,63984,5.06,71882.3,-11.69,-13.43,-13.43,0,*6F
1512799583.96,63985,5.06,71880.3,-11.69,-13.43,-13.43,0,*6E
1512799585.2,63986,5.06,71882.0,-11.69,-13.43,-13.37,0,*6E
1512799586.44,63987,5.06,71880.8,-11.69,-13.43,-13.37,0,*6F
1512799587.68,63988,5.06,71884.5,-11.69,-13.51,-13.37,0,*63
1512799588.96,63989,5.06,71884.8,-11.71,-13.51,-13.37,0,*6B
1512799590.21,63990,5.06,71886.3,-11.71,-13.51,-13.43,0,*60
1512799591.45,63991,5.06,71884.5,-11.71,-13.43,-13.51,0,*61
1512799592.7,63992,5.06,71884.5,-11.71,-13.51,-13.43,0,*62
1512799593.96,63993,5.06,71882.0,-11.71,-13.51,-13.55,0,*64
1512799595.2,63994,5.06,71886.3,-11.71,-13.55,-13.43,0,*60
1512799596.45,63995,5.06,71884.3,-11.71,-13.51,-13.51,0,*66
1512799597.69,63996,5.06,71886.8,-11.71,-13.43,-13.43,0,*65
1512799598.94,63997,5.06,71888.0,-11.71,-13.43,-13.43,0,*64
1512799600.18,63998,5.0,71882.8,-11.71,-13.43,-13.51,0,*68
1512799601.43,63999,5.06,71890.5,-11.71,-13.55,-13.55,0,*6A
1512799602.68,64000,5.06,71884.8,-11.71,-13.51,-13.51,0,*64
1512799603.92,64001,5.06,71890.0,-11.71,-13.43,-13.43,0,*65
1512799605.15,64002,5.06,71886.3,-11.73,-13.47,-13.47,0,*64
1512799606.37,64003,5.06,71886.8,-11.69,-13.51,-13.43,0,*6D
1512799607.61,64004,5.06,71890.8,-11.71,-13.43,-13.43,0,*60
1512799608.83,64005,5.06,71884.5,-11.69,-13.51,-13.43,0,*6B
1512799610.08,64006,5.06,71888.3,-11.71,-13.51,-13.43,0,*61
1512799611.32,64007,5.06,71884.3,-11.71,-13.43,-13.43,0,*63
1512799612.57,64008,5.06,71886.8,-11.71,-13.51,-13.43,0,*6F
1512799613.82,64009,5.06,71888.0,-11.71,-13.51,-13.43,0,*6E
1512799615.06,64010,5.06,71884.5,-11.71,-13.43,-13.43,0,*65
1512799616.32,64011,5.06,71884.3,-11.71,-13.51,-13.51,0,*64
1512799617.56,64012,5.06,71884.8,-11.71,-13.43,-13.43,0,*67
1512799618.81,64013,5.06,71888.0,-11.71,-13.51,-13.51,0,*66
1512799620.06,64014,5.06,71884.8,-11.71,-13.43,-13.43,0,*61
1512799621.3,64015,5.06,71886.3,-11.71,-13.43,-13.51,0,*63
1512799622.55,64016,5.06,71888.8,-11.71,-13.51,-13.51,0,*63
1512799623.8,64017,5.06,71890.3,-11.71,-13.43,-13.43,0,*62
1512799625.05,64018,5.0,71886.0,-11.71,-13.51,-13.51,0,*6D
1512799626.3,64019,5.06,71888.5,-11.71,-13.55,-13.51,0,*68
1512799627.52,64020,5.06,71884.8,-11.69,-13.51,-13.55,0,*6B
1512799628.77,64021,5.06,71886.3,-11.71,-13.55,-13.55,0,*67
1512799630.01,64022,5.06,71890.0,-11.71,-13.55,-13.55,0,*64
1512799631.27,64023,5.06,71884.3,-11.71,-13.51,-13.51,0,*65
1512799632.52,64024,5.06,71888.0,-11.71,-13.51,-13.51,0,*62
1512799633.74,64025,5.06,71886.0,-11.69,-13.51,-13.51,0,*6A
1512799635.0,64026,5.06,71888.0,-11.71,-13.51,-13.51,0,*60
1512799636.25,64027,5.06,71886.0,-11.71,-13.51,-13.51,0,*61
1512799637.5,64028,5.06,71888.0,-11.71,-13.51,-13.51,0,*6E
1512799638.74,64029,5.06,71886.5,-11.73,-13.55,-13.55,0,*6D
1512799639.98,64030,5.06,71890.0,-11.73,-13.55,-13.55,0,*65
1512799641.21,64031,5.06,71888.5,-11.73,-13.55,-13.47,0,*67
1512799642.45,64032,5.06,71888.8,-11.73,-13.47,-13.55,0,*64
1512799643.68,64033,5.06,71886.3,-11.73,-13.55,-13.55,0,*66
1512799644.92,64034,5.06,71888.0,-11.73,-13.55,-13.55,0,*61
1512799646.15,64035,5.0,71884.5,-11.73,-13.55,-13.47,0,*63
1512799647.38,64036,5.06,71888.3,-11.73,-13.47,-13.47,0,*63
1512799648.6,64037,5.06,71888.5,-11.75,-13.55,-13.55,0,*64
1512799649.83,64038,5.06,71890.8,-11.73,-13.55,-13.47,0,*6E
1512799651.06,64039,5.06,71888.5,-11.73,-13.47,-13.47,0,*6C
1512799652.28,64040,5.06,71888.5,-11.73,-13.47,-13.47,0,*62
1512799653.51,64041,5.06,71886.8,-11.73,-13.47,-13.47,0,*63
1512799654.74,64042,5.06,71888.8,-11.73,-13.47,-13.43,0,*64
1512799655.98,64043,5.06,71886.8,-11.71,-13.43,-13.43,0,*63
1512799657.21,64044,5.06,71886.3,-11.73,-13.55,-13.47,0,*65
1512799658.44,64045,5.06,71884.8,-11.73,-13.47,-13.47,0,*67
1512799659.68,64046,5.06,71886.5,-11.71,-13.43,-13.43,0,*66
1512799660.93,64047,5.0,71882.0,-11.71,-13.43,-13.43,0,*67
1512799662.18,64048,5.06,71884.8,-11.71,-13.51,-13.43,0,*6B
1512799663.42,64049,5.06,71886.5,-11.71,-13.43,-13.43,0,*69
1512799664.64,64050,5.06,71886.0,-11.73,-13.47,-13.47,0,*63
1512799665.89,64051,5.06,71888.8,-11.71,-13.43,-13.43,0,*60
1512799667.11,64052,5.06,71886.5,-11.73,-13.47,-13.47,0,*61
1512799668.34,64053,5.06,71884.3,-11.73,-13.47,-13.47,0,*60
1512799669.55,64054,5.0,71884.8,-11.69,-13.43,-13.43,0,*6C
1512799670.79,64055,5.06,71886.8,-11.73,-13.47,-13.43,0,*62
1512799672.05,64056,5.0,71880.5,-11.71,-13.43,-13.37,0,*64
1512799673.32,64057,5.06,71886.3,-11.71,-13.43,-13.29,0,*6A
1512799674.62,64058,5.0,71884.8,-11.71,-13.37,-13.37,0,*69
1512799675.92,64059,5.06,71886.8,-11.71,-13.37,-13.37,0,*68
1512799677.21,64060,5.06,71886.5,-11.71,-13.37,-13.37,0,*62
1512799678.51,64061,5.06,71884.5,-11.71,-13.37,-13.37,0,*63
1512799679.74,64062,5.0,71886.0,-11.73,-13.43,-13.43,0,*62
1512799680.97,64063,5.06,71886.3,-11.73,-13.43,-13.43,0,*63
1512799682.21,64064,5.0,71884.0,-11.73,-13.43,-13.43,0,*64
1512799683.47,64065,5.06,71886.5,-11.73,-13.43,-13.33,0,*62
1512799684.71,64066,5.0,71884.8,-11.73,-13.43,-13.43,0,*66
1512799685.94,64067,5.06,71884.5,-11.73,-13.43,-13.43,0,*67
1512799687.2,64068,5.0,71884.5,-11.73,-13.43,-13.33,0,*6F
1512799688.44,64069,5.0,71884.5,-11.73,-13.43,-13.43,0,*69
1512799689.67,64070,5.06,71886.5,-11.73,-13.43,-13.43,0,*61
1512799690.91,64071,5.06,71884.5,-11.73,-13.43,-13.43,0,*60
1512799692.2,64072,5.06,71884.5,-11.71,-13.37,-13.37,0,*61
1512799693.5,64073,5.0,71880.3,-11.71,-13.37,-13.37,0,*60
1512799694.79,64074,5.0,71880.8,-11.71,-13.37,-13.37,0,*67
1512799696.06,64075,5.06,71884.5,-11.69,-13.37,-13.37,0,*6F
1512799697.29,64076,5.06,71884.3,-11.73,-13.43,-13.43,0,*67
1512799698.59,64077,5.06,71884.3,-11.71,-13.37,-13.37,0,*64
1512799699.85,64078,5.06,71884.5,-11.69,-13.37,-13.37,0,*62